W8DRH-13 Weather Reports


Display with metric or nautical units.
time (UTC)temp
F
wind
direction
speed
MPH
gust
MPH
rain 1hr
in
rain 24hr
in
rain mn
in
humidity
%
barometer
mb
20260510220010 60 325 2.0 3.0 0.00 0.00 0.00 51 1016.1
20260510215507 60 298 1.0 2.0 0.00 0.00 0.00 52 1016.0
20260510215005 61 328 0.0 0.0 0.00 0.00 0.00 50 1015.8
20260510214502 61 288 1.0 2.0 0.00 0.00 0.00 49 1015.9
20260510213958 60 289 1.0 1.0 0.00 0.00 0.00 49 1015.8
20260510213455 60 300 2.0 2.0 0.00 0.00 0.00 50 1015.7
20260510212951 60 311 3.0 3.0 0.00 0.00 0.00 50 1015.5
20260510212449 60 359 2.0 2.0 0.00 0.00 0.00 55 1015.4
20260510211945 60 309 2.0 3.0 0.00 0.00 0.00 53 1015.6
20260510211443 60 305 3.0 3.0 0.00 0.00 0.00 52 1015.3
20260510210942 61 335 3.0 3.0 0.00 0.00 0.00 52 1015.1
20260510210438 63 43 2.0 2.0 0.00 0.00 0.00 53 1015.1
20260510205932 62 32 1.0 1.0 0.00 0.00 0.00 51 1015.4
20260510205427 63 8 2.0 2.0 0.00 0.00 0.00 51 1015.5
20260510204924 62 151 1.0 2.0 0.00 0.00 0.00 48 1015.4
20260510204421 61 56 2.0 2.0 0.00 0.00 0.00 52 1015.3
20260510203917 61 48 1.0 2.0 0.00 0.00 0.00 51 1015.2
20260510203414 61 36 4.0 4.0 0.00 0.00 0.00 49 1015.3
20260510202908 60 32 3.0 3.0 0.00 0.00 0.00 49 1015.5
20260510202404 61 50 2.0 2.0 0.00 0.00 0.00 48 1015.3
20260510201901 61 343 5.0 6.0 0.00 0.00 0.00 47 1015.6
20260510201358 62 298 4.0 4.0 0.00 0.00 0.00 46 1015.5
20260510200855 64 6 2.0 2.0 0.00 0.00 0.00 49 1015.5
20260510200354 63 28 2.0 2.0 0.00 0.00 0.00 50 1015.5
20260510195849 61 50 3.0 3.0 0.00 0.00 0.00 50 1015.5
20260510195346 61 75 5.0 7.0 0.00 0.00 0.00 48 1015.7
20260510194840 61 65 1.0 1.0 0.00 0.00 0.00 48 1015.7
20260510194337 62 25 3.0 3.0 0.00 0.00 0.00 51 1015.6
20260510193833 62 303 1.0 1.0 0.00 0.00 0.00 50 1015.8
20260510193328 63 308 1.0 2.0 0.00 0.00 0.00 53 1015.5
20260510192823 64 27 3.0 3.0 0.00 0.00 0.00 50 1015.8
20260510192319 64 39 2.0 4.0 0.00 0.00 0.00 53 1015.8
20260510191815 62 69 0.0 0.0 0.00 0.00 0.00 51 1015.8
20260510191312 63 12 0.0 1.0 0.00 0.00 0.00 50 1015.9
20260510190810 63 11 2.0 2.0 0.00 0.00 0.00 52 1015.7
20260510190308 61 42 2.0 2.0 0.00 0.00 0.00 50 1015.4
20260510185803 62 36 2.0 2.0 0.00 0.00 0.00 51 1015.8
20260510185305 61 28 1.0 1.0 0.00 0.00 0.00 52 1015.7
20260510184758 62 268 6.0 7.0 0.00 0.00 0.00 51 1015.5
20260510184255 62 299 1.0 1.0 0.00 0.00 0.00 50 1015.4
20260510183754 60 349 2.0 3.0 0.00 0.00 0.00 55 1015.5
20260510183250 60 77 7.0 9.0 0.00 0.00 0.00 52 1015.6
20260510182746 61 5 3.0 4.0 0.00 0.00 0.00 53 1015.6
20260510182242 61 132 1.0 1.0 0.00 0.00 0.00 54 1015.5
20260510181739 61 43 1.0 2.0 0.00 0.00 0.00 53 1015.7
20260510181236 60 63 0.0 1.0 0.00 0.00 0.00 54 1015.4
20260510180732 62 31 1.0 2.0 0.00 0.00 0.00 52 1015.5
20260510180230 62 41 3.0 3.0 0.00 0.00 0.00 53 1015.7
20260510175727 60 49 3.0 6.0 0.00 0.00 0.00 57 1015.3
20260510175222 60 112 2.0 2.0 0.00 0.00 0.00 55 1015.3
20260510174719 60 80 3.0 6.0 0.00 0.00 0.00 56 1015.0
20260510174217 60 95 2.0 3.0 0.00 0.00 0.00 56 1015.0
20260510173713 60 91 3.0 4.0 0.00 0.00 0.00 55 1015.1
20260510173208 60 36 4.0 8.0 0.00 0.00 0.00 56 1015.3
20260510172703 59 63 3.0 4.0 0.00 0.00 0.00 55 1015.3
20260510172200 59 65 2.0 4.0 0.00 0.00 0.00 59 1015.3
20260510171658 59 34 7.0 8.0 0.00 0.00 0.00 59 1015.2
20260510171155 58 118 2.0 3.0 0.00 0.00 0.00 58 1015.4
20260510170651 58 127 5.0 6.0 0.00 0.00 0.00 58 1015.5
20260510170147 58 89 3.0 4.0 0.00 0.00 0.00 58 1015.4
20260510165643 59 70 4.0 6.0 0.00 0.00 0.00 61 1015.6
20260510165139 60 332 1.0 1.0 0.00 0.00 0.00 67 1015.8
20260510164637 58 4 0.0 1.0 0.00 0.00 0.00 61 1015.7
20260510164134 57 54 2.0 4.0 0.00 0.00 0.00 61 1015.6
20260510163629 57 65 3.0 4.0 0.00 0.00 0.00 60 1015.4
20260510163125 57 6 4.0 6.0 0.00 0.00 0.00 60 1015.6
20260510162620 58 26 9.0 13.0 0.00 0.00 0.00 60 1015.8
20260510162117 57 94 3.0 4.0 0.00 0.00 0.00 62 1015.4
20260510161612 57 62 5.0 8.0 0.00 0.00 0.00 63 1015.5
20260510161109 57 67 2.0 6.0 0.00 0.00 0.00 65 1015.4
20260510160606 57 84 4.0 7.0 0.00 0.00 0.00 65 1015.4
20260510160106 57 2 5.0 7.0 0.00 0.00 0.00 63 1015.4
20260510155603 57 33 5.0 7.0 0.00 0.00 0.00 65 1015.3
20260510155059 57 50 3.0 4.0 0.00 0.00 0.00 66 1015.3
20260510154555 57 40 3.0 4.0 0.00 0.00 0.00 67 1015.1
20260510154050 57 74 4.0 4.0 0.00 0.00 0.00 69 1015.0
20260510153545 56 68 3.0 3.0 0.00 0.00 0.00 70 1015.0
20260510153042 57 45 7.0 8.0 0.00 0.00 0.00 69 1014.9
20260510152539 57 29 10.0 13.0 0.00 0.00 0.00 68 1015.0
20260510152035 56 98 3.0 3.0 0.00 0.00 0.00 70 1014.8
20260510151532 56 23 7.0 10.0 0.00 0.00 0.00 69 1014.9
20260510151030 56 100 6.0 7.0 0.00 0.00 0.00 70 1014.6
20260510150524 55 14 2.0 3.0 0.00 0.00 0.00 71 1014.5
20260510150021 55 101 3.0 6.0 0.00 0.00 0.00 69 1014.4
20260510145518 55 22 8.0 11.0 0.00 0.00 0.00 70 1014.6
20260510145014 55 32 4.0 6.0 0.00 0.00 0.00 71 1014.6
20260510144511 55 58 1.0 2.0 0.00 0.00 0.00 72 1014.4
20260510144007 55 72 2.0 2.0 0.00 0.00 0.00 74 1014.3
20260510143502 55 62 2.0 4.0 0.00 0.00 0.00 73 1014.1
20260510142959 54 78 2.0 3.0 0.00 0.00 0.00 73 1014.1
20260510142456 54 33 5.0 6.0 0.00 0.00 0.00 74 1014.0
20260510141952 54 63 7.0 10.0 0.00 0.00 0.00 74 1013.8
20260510141449 54 86 2.0 3.0 0.00 0.00 0.00 74 1013.6
20260510140946 53 53 4.0 6.0 0.00 0.00 0.00 76 1013.7
20260510140442 53 34 3.0 3.0 0.00 0.00 0.00 76 1013.7
20260510135942 53 41 8.0 9.0 0.00 0.00 0.00 76 1013.7
20260510135438 53 27 6.0 9.0 0.00 0.00 0.00 76 1013.6
20260510134935 52 32 3.0 7.0 0.00 0.00 0.00 77 1013.9
20260510134431 52 44 3.0 3.0 0.00 0.00 0.00 77 1013.7
20260510133928 52 37 4.0 7.0 0.00 0.00 0.00 77 1013.6
20260510133424 51 47 4.0 4.0 0.00 0.00 0.00 78 1013.6
20260510132919 51 17 7.0 8.0 0.00 0.00 0.00 79 1013.5
20260510132418 51 18 5.0 6.0 0.00 0.00 0.00 79 1013.4
20260510131914 51 40 4.0 6.0 0.00 0.00 0.00 78 1013.5
20260510131412 52 119 4.0 4.0 0.00 0.00 0.00 78 1013.3
20260510130908 52 84 3.0 4.0 0.00 0.00 0.00 78 1013.4
20260510130406 52 59 3.0 4.0 0.00 0.00 0.00 78 1013.4
20260510125902 51 30 3.0 3.0 0.00 0.00 0.00 78 1013.2
20260510125358 51 45 5.0 7.0 0.00 0.00 0.00 77 1013.0
20260510124855 51 58 3.0 4.0 0.00 0.00 0.00 77 1013.1
20260510124352 51 80 2.0 3.0 0.00 0.00 0.00 78 1013.2
20260510123848 51 23 3.0 4.0 0.00 0.00 0.00 78 1012.8
20260510123343 51 20 2.0 3.0 0.00 0.00 0.00 78 1013.2
20260510122840 51 33 3.0 3.0 0.00 0.00 0.00 78 1013.1
20260510122336 51 49 1.0 2.0 0.00 0.00 0.00 78 1012.9
20260510121832 51 27 3.0 3.0 0.00 0.00 0.00 78 1012.6
20260510121330 51 42 3.0 4.0 0.00 0.00 0.00 79 1012.4
20260510120827 51 38 3.0 3.0 0.00 0.00 0.00 79 1012.5
20260510120324 51 12 4.0 6.0 0.00 0.00 0.00 79 1012.5
20260510115820 50 45 1.0 2.0 0.00 0.00 0.00 79 1012.3
20260510115317 50 38 2.0 3.0 0.00 0.00 0.00 79 1012.2
20260510114813 50 50 2.0 2.0 0.00 0.00 0.00 80 1012.3
20260510114310 50 46 0.0 0.0 0.00 0.00 0.00 80 1012.2
20260510113805 50 46 0.0 0.0 0.00 0.00 0.00 79 1012.0
20260510113302 50 46 1.0 1.0 0.00 0.00 0.00 79 1011.8
20260510112759 50 52 1.0 2.0 0.00 0.00 0.00 79 1011.6
20260510112256 50 54 1.0 2.0 0.00 0.00 0.00 79 1011.5
20260510111751 50 57 1.0 2.0 0.00 0.00 0.00 79 1011.5
20260510111249 50 54 1.0 1.0 0.00 0.00 0.00 79 1011.4
20260510110748 50 50 1.0 2.0 0.00 0.00 0.00 80 1011.4
20260510110246 50 44 0.0 0.0 0.00 0.00 0.00 80 1011.5
20260510105746 50 44 0.0 0.0 0.00 0.00 0.00 79 1011.4
20260510105241 50 50 1.0 2.0 0.00 0.00 0.00 78 1010.6
20260510104737 50 35 3.0 3.0 0.00 0.00 0.00 78 1010.7
20260510104235 50 57 1.0 2.0 0.00 0.00 0.00 78 1010.9
20260510103731 50 51 0.0 0.0 0.00 0.00 0.00 78 1010.9
20260510103229 50 50 0.0 1.0 0.00 0.00 0.00 77 1011.0
20260510102728 51 46 1.0 1.0 0.00 0.00 0.00 77 1010.7
20260510102224 51 46 1.0 1.0 0.00 0.00 0.00 76 1010.7
20260510101722 51 50 1.0 2.0 0.00 0.00 0.00 76 1010.5
20260510101220 51 38 2.0 4.0 0.00 0.00 0.00 77 1010.6
20260510100716 51 41 2.0 2.0 0.00 0.00 0.00 77 1010.3
20260510100214 51 42 2.0 3.0 0.00 0.00 0.00 77 1010.2
20260510095709 51 37 3.0 3.0 0.00 0.00 0.00 77 1010.3
20260510095205 51 57 1.0 2.0 0.00 0.00 0.00 78 1010.2
20260510094703 51 36 4.0 4.0 0.00 0.00 0.00 78 1009.8
20260510094159 51 48 2.0 2.0 0.00 0.00 0.00 78 1009.9
20260510093655 51 35 3.0 3.0 0.00 0.00 0.00 79 1010.0
20260510093153 51 36 2.0 3.0 0.00 0.00 0.00 80 1009.7
20260510092649 51 44 3.0 4.0 0.00 0.00 0.00 80 1009.6
20260510092144 51 38 2.0 3.0 0.00 0.00 0.00 80 1009.7
20260510091641 51 54 2.0 3.0 0.00 0.00 0.00 80 1009.8
20260510091137 51 38 3.0 3.0 0.00 0.00 0.00 80 1009.4
20260510090634 52 39 4.0 4.0 0.00 0.00 0.00 80 1009.2
20260510090130 52 38 3.0 4.0 0.00 0.00 0.00 79 1009.3
20260510085625 52 22 4.0 6.0 0.00 0.00 0.00 80 1009.5
20260510085121 52 33 3.0 3.0 0.00 0.00 0.00 80 1009.3
20260510084612 52 33 4.0 6.0 0.00 0.00 0.00 81 1009.4
20260510084109 52 41 1.0 1.0 0.00 0.00 0.00 81 1009.3
20260510083606 52 34 4.0 6.0 0.00 0.00 0.00 81 1008.9
20260510083102 53 31 3.0 4.0 0.00 0.00 0.00 81 1009.1
20260510082559 53 7 3.0 4.0 0.00 0.00 0.00 82 1009.1
20260510082054 53 47 2.0 3.0 0.00 0.00 0.00 82 1009.3
20260510081549 53 38 2.0 3.0 0.00 0.00 0.00 82 1009.0
20260510081045 53 44 2.0 2.0 0.00 0.00 0.00 82 1009.0
20260510080544 54 65 1.0 1.0 0.00 0.00 0.00 82 1008.9
20260510080042 54 35 3.0 4.0 0.00 0.00 0.00 81 1008.9
20260510075539 54 43 2.0 2.0 0.00 0.00 0.00 80 1008.8
20260510075036 55 36 3.0 3.0 0.00 0.00 0.00 80 1008.7
20260510074533 55 47 1.0 2.0 0.00 0.00 0.00 80 1008.6
20260510074028 55 55 4.0 4.0 0.00 0.00 0.00 80 1008.6
20260510073524 55 23 3.0 3.0 0.00 0.00 0.00 80 1008.4
20260510073022 55 39 3.0 3.0 0.00 0.00 0.00 80 1008.5
20260510072519 54 48 4.0 4.0 0.00 0.00 0.00 82 1008.5
20260510072014 54 95 0.0 0.0 0.00 0.00 0.00 83 1008.5
20260510071510 54 274 0.0 0.0 0.00 0.00 0.00 84 1008.4
20260510071009 54 274 0.0 1.0 0.00 0.00 0.00 85 1008.3
20260510070505 55 274 0.0 0.0 0.00 0.00 0.00 85 1008.3
20260510070002 55 274 0.0 1.0 0.00 0.00 0.00 85 1008.3
20260510065458 55 274 1.0 1.0 0.00 0.00 0.00 85 1008.3
20260510064954 55 274 1.0 1.0 0.00 0.00 0.00 85 1008.1
20260510064452 56 289 2.0 2.0 0.00 0.00 0.00 86 1008.1
20260510063948 56 289 1.0 1.0 0.00 0.00 0.00 85 1007.8
20260510063444 56 12 1.0 2.0 0.00 0.00 0.00 85 1007.9
20260510062942 57 23 1.0 1.0 0.00 0.00 0.00 85 1007.8
20260510062436 57 338 2.0 2.0 0.00 0.00 0.00 85 1008.0
20260510061932 58 304 6.0 8.0 0.00 0.00 0.00 84 1007.9
20260510061429 58 293 2.0 3.0 0.00 0.00 0.00 83 1007.8
20260510060925 59 293 3.0 3.0 0.00 0.00 0.00 83 1007.8
20260510060422 59 283 9.0 10.0 0.00 0.00 0.00 82 1007.7
20260510055918 59 282 6.0 7.0 0.00 0.00 0.00 83 1007.8
20260510055415 60 305 6.0 7.0 0.00 0.00 0.00 82 1007.7
20260510054912 60 301 8.0 9.0 0.00 0.00 0.00 81 1007.5
20260510054408 60 297 8.0 9.0 0.00 0.00 0.00 81 1007.2
20260510053902 60 295 8.0 10.0 0.00 0.00 0.00 81 1007.2
20260510053359 60 306 5.0 6.0 0.00 0.00 0.00 82 1007.3
20260510052855 59 296 7.0 7.0 0.00 0.00 0.00 83 1007.2
20260510052351 59 278 4.0 4.0 0.00 0.00 0.00 83 1007.2
20260510051847 59 268 4.0 4.0 0.00 0.00 0.00 85 1007.1
20260510051344 58 272 5.0 6.0 0.00 0.00 0.00 86 1006.9
20260510050841 57 287 4.0 4.0 0.00 0.00 0.00 89 1006.8
20260510050338 57 278 3.0 3.0 0.00 0.00 0.00 90 1006.6
20260510045835 57 234 1.0 1.0 0.00 0.00 0.00 90 1006.8
20260510045331 57 215 2.0 3.0 0.00 0.00 0.00 90 1006.6
20260510044828 57 223 2.0 2.0 0.00 0.00 0.00 90 1006.3
20260510044325 57 206 2.0 2.0 0.00 0.00 0.00 90 1006.4
20260510043821 57 230 3.0 3.0 0.00 0.00 0.00 89 1006.4
20260510043317 57 203 2.0 2.0 0.00 0.00 0.00 89 1006.2
20260510042816 57 216 2.0 2.0 0.00 0.00 0.00 89 1006.2
20260510042311 57 227 2.0 3.0 0.00 0.00 0.00 89 1006.4
20260510041808 57 217 2.0 3.0 0.00 0.00 0.00 89 1006.3
20260510041305 57 179 2.0 2.0 0.00 0.00 0.00 89 1006.4
20260510040803 57 221 3.0 3.0 0.00 0.00 0.00 90 1006.2
20260510040259 57 191 0.0 0.0 0.00 0.00 0.00 90 1006.1
20260510035755 57 192 1.0 1.0 0.00 0.18 0.18 89 1006.2
20260510035250 57 176 2.0 2.0 0.12 0.18 0.18 88 1006.1
20260510034741 58 262 2.0 3.0 0.59 0.18 0.18 87 1006.3
20260510034239 58 309 4.0 4.0 0.59 0.16 0.16 86 1006.4
20260510033735 60 286 13.0 15.0 0.31 0.11 0.11 85 1007.0
20260510033233 62 289 15.0 18.0 0.12 0.07 0.07 80 1006.8
20260510032729 62 295 10.0 15.0 0.07 0.06 0.06 76 1006.5
20260510032225 61 236 5.0 6.0 0.00 0.05 0.05 79 1006.3
20260510031720 61 216 3.0 3.0 0.00 0.05 0.05 78 1005.6
20260510031216 60 212 2.0 2.0 0.00 0.05 0.05 79 1005.5
20260510030715 60 164 1.0 1.0 0.00 0.05 0.05 80 1005.7
20260510030214 59 155 1.0 2.0 0.00 0.05 0.05 82 1005.6
20260510025711 58 153 1.0 1.0 0.00 0.05 0.05 84 1005.7
20260510025208 58 153 1.0 1.0 0.00 0.05 0.05 84 1005.6
20260510024705 59 153 1.0 1.0 0.00 0.05 0.05 84 1005.7
20260510024201 59 152 1.0 1.0 0.00 0.05 0.05 83 1005.8
20260510023657 59 152 1.0 1.0 0.00 0.05 0.05 82 1005.6
20260510023154 59 136 1.0 1.0 0.00 0.05 0.05 82 1005.7
20260510022650 59 130 0.0 1.0 0.00 0.05 0.05 83 1005.7
20260510022145 58 106 0.0 1.0 0.00 0.05 0.05 83 1005.8
20260510021640 58 106 0.0 0.0 0.00 0.05 0.05 84 1005.8
20260510021137 58 114 0.0 0.0 0.00 0.05 0.05 84 1005.6
20260510020632 58 128 0.0 0.0 0.00 0.05 0.05 83 1005.6
20260510020127 58 129 0.0 0.0 0.00 0.05 0.05 82 1005.4
20260510015624 59 129 0.0 0.0 0.00 0.05 0.05 82 1005.2
20260510015121 59 129 0.0 0.0 0.00 0.05 0.05 81 1005.3
20260510014616 59 129 0.0 0.0 0.00 0.05 0.05 81 1005.2
20260510014114 60 129 1.0 1.0 0.00 0.05 0.05 81 1005.2
20260510013613 60 142 2.0 2.0 0.00 0.05 0.05 81 1004.9
20260510013109 60 102 1.0 1.0 0.00 0.05 0.05 81 1004.8
20260510012608 60 102 0.0 1.0 0.00 0.05 0.05 80 1004.8
20260510012105 60 102 1.0 2.0 0.00 0.05 0.05 80 1004.6
20260510011604 60 102 0.0 1.0 0.00 0.05 0.05 81 1004.9
20260510011101 60 102 0.0 1.0 0.00 0.05 0.05 81 1004.6
20260510010557 60 102 0.0 0.0 0.00 0.05 0.05 81 1004.8
20260510010055 60 89 1.0 1.0 0.00 0.05 0.05 80 1004.9
20260510005550 60 89 1.0 2.0 0.00 0.05 0.05 79 1004.7
20260510005048 60 53 1.0 1.0 0.00 0.05 0.05 78 1004.5
20260510004546 60 53 0.0 0.0 0.00 0.05 0.05 78 1004.6
20260510004044 60 52 0.0 0.0 0.00 0.05 0.05 79 1004.6
20260510003540 60 52 0.0 0.0 0.00 0.05 0.05 79 1004.2
20260510003035 61 52 1.0 1.0 0.00 0.05 0.05 79 1004.6
20260510002531 61 52 0.0 0.0 0.00 0.05 0.05 78 1004.5
20260510002028 61 52 0.0 0.0 0.00 0.05 0.05 78 1004.2
20260510001525 61 52 0.0 0.0 0.00 0.05 0.05 77 1004.2
20260510001024 62 50 1.0 1.0 0.00 0.05 0.05 77 1004.3
20260510000518 62 86 1.0 1.0 0.00 0.05 0.05 76 1004.3
20260510000016 62 132 1.0 1.0 0.00 0.05 0.05 75 1004.0
20260509235513 64 31 3.0 3.0 0.00 0.05 0.05 72 1003.9
20260509235009 69 359 1.0 1.0 0.00 0.05 0.05 68 1004.3
20260509234506 71 259 6.0 8.0 0.00 0.05 0.05 57 1003.6
20260509234004 71 237 12.0 17.0 0.00 0.05 0.05 56 1003.5
20260509233501 71 282 13.0 15.0 0.00 0.05 0.05 55 1003.5
20260509232957 71 239 6.0 7.0 0.00 0.05 0.05 57 1003.5
20260509232455 71 261 8.0 11.0 0.00 0.05 0.05 56 1003.5
20260509231950 71 281 10.0 13.0 0.00 0.05 0.05 56 1003.2
20260509231447 71 235 8.0 10.0 0.00 0.05 0.05 56 1003.2
20260509230945 71 255 15.0 17.0 0.00 0.05 0.05 56 1003.2
20260509230442 70 229 8.0 9.0 0.00 0.05 0.05 57 1003.3
20260509225938 70 231 7.0 8.0 0.00 0.05 0.05 56 1003.3
20260509225434 71 259 8.0 9.0 0.00 0.05 0.05 56 1003.2
20260509224930 71 257 9.0 10.0 0.00 0.05 0.05 56 1003.4
20260509224425 71 224 7.0 9.0 0.00 0.05 0.05 56 1003.1
20260509223923 71 270 12.0 15.0 0.00 0.05 0.05 55 1003.3
20260509223420 71 248 10.0 11.0 0.00 0.05 0.05 56 1003.0
20260509222917 71 267 10.0 16.0 0.00 0.05 0.05 55 1003.1
20260509222412 71 243 8.0 9.0 0.00 0.05 0.05 55 1003.0
20260509221908 71 221 11.0 13.0 0.00 0.05 0.05 55 1003.1
20260509221405 71 269 12.0 15.0 0.00 0.05 0.05 54 1003.0
20260509220901 72 244 13.0 16.0 0.00 0.05 0.05 54 1002.9